,,PA_Meas_PMT16A,,PR_Meas_QMR101_102,,RH_Meas_QMH101,,SR_Meas_QMS101,,TA_Meas_QMH101,,GenWind,,GenWind,
time,status,PA,status,PR,status,RH,status,SR,status,TA,status,DirAvg,status,SpdAvg,
2013-07-01, 07:37:04,VALID,917.136,VALID,0,VALID,97.5035,VALID,111.739,VALID,18.494,VALID,120,VALID,0,
2013-07-01, 07:38:04,VALID,917.064,VALID,0,VALID,97.5035,VALID,129.359,VALID,18.533,VALID,125,VALID,0,
2013-07-01, 07:39:04,VALID,917.089,VALID,0,VALID,97.5187,VALID,157.401,VALID,18.5914,VALID,146,VALID,0,
2013-07-01, 07:40:04,VALID,917.149,VALID,0,VALID,97.4959,VALID,154.608,VALID,18.6109,VALID,156,VALID,0,
2013-07-01, 07:41:04,VALID,917.172,VALID,0,VALID,97.4959,VALID,168.145,VALID,18.6694,VALID,156,VALID,0,
2013-07-01, 07:42:04,VALID,917.206,VALID,0,VALID,97.4882,VALID,172.765,VALID,18.7084,VALID,134,VALID,0,
2013-07-01, 07:43:04,VALID,917.218,VALID,0,VALID,97.5035,VALID,164.278,VALID,18.824,VALID,134,VALID,0,
2013-07-01, 07:44:04,VALID,917.247,VALID,0,VALID,97.4882,VALID,120.979,VALID,18.8644,VALID,128,VALID,0,
2013-07-01, 07:45:04,VALID,917.285,VALID,0,VALID,97.4654,VALID,116.036,VALID,18.8824,VALID,128,VALID,0,
2013-07-01, 07:46:04,VALID,917.266,VALID,0,VALID,97.4577,VALID,114.103,VALID,18.9424,VALID,128,VALID,0,
2013-07-01, 07:47:04,VALID,917.272,VALID,0,VALID,97.4654,VALID,114.425,VALID,18.9994,VALID,123,VALID,0,
2013-07-01, 07:48:04,VALID,917.294,VALID,0,VALID,97.4425,VALID,115.607,VALID,19.0579,VALID,123,VALID,0,
2013-07-01, 07:49:04,VALID,917.276,VALID,0,VALID,97.4501,VALID,117.003,VALID,19.0008,VALID,83,VALID,0,
2013-07-01, 07:50:04,VALID,917.343,VALID,0,VALID,97.4044,VALID,118.615,VALID,18.9799,VALID,82,VALID,0,
2013-07-01, 07:51:04,VALID,917.312,VALID,0,VALID,97.4273,VALID,120.871,VALID,18.9409,VALID,74,VALID,0,
2013-07-01, 07:52:04,VALID,917.33,VALID,0,VALID,97.3815,VALID,123.557,VALID,18.9814,VALID,42,VALID,0,
2013-07-01, 07:53:04,VALID,917.411,VALID,0,VALID,97.3891,VALID,126.351,VALID,19.0008,VALID,31,VALID,0,
2013-07-01, 07:54:04,VALID,917.403,VALID,0,VALID,97.3891,VALID,128.177,VALID,19.0203,VALID,29,VALID,0,
2013-07-01, 07:55:04,VALID,917.384,VALID,0,VALID,97.3739,VALID,128.714,VALID,18.9828,VALID,49,VALID,0,
2013-07-01, 07:56:04,VALID,917.434,VALID,0,VALID,97.351,VALID,128.822,VALID,18.9633,VALID,49,VALID,0,
2013-07-01, 07:57:04,VALID,917.418,VALID,0,VALID,97.3358,VALID,128.5,VALID,18.9424,VALID,49,VALID,0,
2013-07-01, 07:58:04,VALID,917.428,VALID,0,VALID,97.351,VALID,128.714,VALID,18.9619,VALID,49,VALID,0,
2013-07-01, 07:59:04,VALID,917.555,VALID,0,VALID,97.3205,VALID,129.467,VALID,19.0413,VALID,29,VALID,0,
2013-07-01, 08:00:04,VALID,917.594,VALID,0,VALID,97.3281,VALID,131.508,VALID,19.0203,VALID,29,VALID,0,
2013-07-01, 08:01:04,VALID,917.534,VALID,0,VALID,97.3358,VALID,135.806,VALID,19.0788,VALID,29,VALID,0,
2013-07-01, 08:02:04,VALID,917.554,VALID,0,VALID,97.3434,VALID,142.897,VALID,19.1778,VALID,28,VALID,0,
2013-07-01, 08:03:04,VALID,917.544,VALID,0,VALID,97.3205,VALID,155.897,VALID,19.2558,VALID,29,VALID,0,
2013-07-01, 08:04:04,VALID,917.549,VALID,0,VALID,97.3205,VALID,160.839,VALID,19.2738,VALID,29,VALID,0,
2013-07-01, 08:05:04,VALID,917.61,VALID,0,VALID,97.3129,VALID,160.732,VALID,19.3143,VALID,29,VALID,0,
2013-07-01, 08:06:04,VALID,917.612,VALID,0,VALID,97.3053,VALID,162.451,VALID,19.3128,VALID,29,VALID,0,
2013-07-01, 08:07:04,VALID,917.745,VALID,0,VALID,97.29,VALID,167.931,VALID,19.3698,VALID,29,VALID,0,
2013-07-01, 08:08:04,VALID,917.647,VALID,0,VALID,97.2824,VALID,174.807,VALID,19.4103,VALID,36,VALID,0,
2013-07-01, 08:09:04,VALID,917.635,VALID,0,VALID,97.3205,VALID,186.733,VALID,19.2933,VALID,38,VALID,0,
2013-07-01, 08:10:04,VALID,917.678,VALID,0,VALID,97.29,VALID,224.337,VALID,19.3923,VALID,63,VALID,0,
2013-07-01, 08:11:04,VALID,917.618,VALID,0,VALID,97.2672,VALID,267.636,VALID,19.4688,VALID,69,VALID,0,
2013-07-01, 08:12:04,VALID,917.717,VALID,0,VALID,97.2748,VALID,305.455,VALID,19.4688,VALID,104,VALID,0,
2013-07-01, 08:13:04,VALID,917.838,VALID,0,VALID,97.2519,VALID,316.307,VALID,19.4883,VALID,104,VALID,0,
2013-07-01, 08:14:04,VALID,917.741,VALID,0,VALID,97.2367,VALID,344.779,VALID,19.6443,VALID,104,VALID,0,
2013-07-01, 08:15:04,VALID,917.774,VALID,0,VALID,97.2062,VALID,342.415,VALID,19.8588,VALID,104,VALID,0,
2013-07-01, 08:16:04,VALID,917.748,VALID,0,VALID,97.2138,VALID,377.548,VALID,19.8978,VALID,104,VALID,0,
2013-07-01, 08:17:04,VALID,917.793,VALID,0,VALID,97.1909,VALID,401.615,VALID,19.9758,VALID,104,VALID,0,
2013-07-01, 08:18:04,VALID,917.784,VALID,0,VALID,97.1528,VALID,403.119,VALID,20.0538,VALID,104,VALID,0,
2013-07-01, 08:19:04,VALID,917.814,VALID,0,VALID,97.1223,VALID,408.276,VALID,20.1108,VALID,103,VALID,0,
2013-07-01, 08:20:04,VALID,917.779,VALID,0,VALID,97.0766,VALID,410.962,VALID,20.1708,VALID,156,VALID,0,
2013-07-01, 08:21:04,VALID,917.765,VALID,0,VALID,97.0308,VALID,354.771,VALID,20.2668,VALID,156,VALID,0,
2013-07-01, 08:22:04,VALID,917.848,VALID,0,VALID,97.0156,VALID,197.477,VALID,20.3854,VALID,156,VALID,0,
2013-07-01, 08:23:04,VALID,917.896,VALID,0,VALID,96.947,VALID,120.979,VALID,20.3253,VALID,80,VALID,0,
2013-07-01, 08:24:04,VALID,918.014,VALID,0,VALID,96.8555,VALID,118.937,VALID,20.3058,VALID,80,VALID,0,
2013-07-01, 08:25:04,VALID,917.885,VALID,0,VALID,96.8021,VALID,172.98,VALID,20.4244,VALID,80,VALID,0,
2013-07-01, 08:26:04,VALID,917.947,VALID,0,VALID,96.7716,VALID,169.112,VALID,20.4228,VALID,80,VALID,0,
2013-07-01, 08:27:04,VALID,917.818,VALID,0,VALID,96.6725,VALID,171.798,VALID,20.4228,VALID,80,VALID,0,
2013-07-01, 08:28:04,VALID,918.012,VALID,0,VALID,96.5963,VALID,174.914,VALID,20.4618,VALID,80,VALID,0,
2013-07-01, 08:29:04,VALID,917.864,VALID,0,VALID,96.5887,VALID,176.741,VALID,20.5984,VALID,80,VALID,0,
2013-07-01, 08:30:04,VALID,917.889,VALID,0,VALID,96.4896,VALID,181.361,VALID,20.5789,VALID,80,VALID,0,
2013-07-01, 08:31:04,VALID,917.946,VALID,0,VALID,96.3219,VALID,199.196,VALID,20.5789,VALID,80,VALID,0,
2013-07-01, 08:32:04,VALID,917.988,VALID,0,VALID,96.1389,VALID,228.635,VALID,20.5594,VALID,353,VALID,0,
2013-07-01, 08:33:04,VALID,918.016,VALID,0,VALID,96.0245,VALID,252.164,VALID,20.5999,VALID,24,VALID,0,
2013-07-01, 08:34:04,VALID,917.935,VALID,0,VALID,95.7958,VALID,245.396,VALID,20.5609,VALID,27,VALID,0,
2013-07-01, 08:35:04,VALID,917.88,VALID,0,VALID,95.468,VALID,266.347,VALID,20.5024,VALID,19,VALID,0,
2013-07-01, 08:36:04,VALID,917.954,VALID,0,VALID,95.1174,VALID,262.156,VALID,20.5219,VALID,19,VALID,0,
2013-07-01, 08:37:04,VALID,917.956,VALID,0,VALID,94.9192,VALID,433.418,VALID,20.5235,VALID,19,VALID,0,
2013-07-01, 08:38:04,VALID,917.935,VALID,0,VALID,95.2088,VALID,511.85,VALID,20.6585,VALID,17,VALID,0,
2013-07-01, 08:39:04,VALID,918.012,VALID,0,VALID,95.1631,VALID,535.379,VALID,20.8535,VALID,13,VALID,0,
2013-07-01, 08:40:04,VALID,917.828,VALID,0,VALID,94.7972,VALID,558.479,VALID,21.0096,VALID,13,VALID,0,
2013-07-01, 08:41:04,VALID,917.644,VALID,0,VALID,93.6537,VALID,573.306,VALID,21.1071,VALID,18,VALID,0,
2013-07-01, 08:42:04,VALID,918.008,VALID,0,VALID,92.838,VALID,572.876,VALID,21.2632,VALID,18,VALID,0,
2013-07-01, 08:43:04,VALID,917.885,VALID,0,VALID,92.3348,VALID,532.263,VALID,21.4778,VALID,19,VALID,0,
2013-07-01, 08:44:04,VALID,917.932,VALID,0,VALID,92.5025,VALID,517.974,VALID,21.751,VALID,19,VALID,0,
2013-07-01, 08:45:04,VALID,917.957,VALID,0,VALID,91.8774,VALID,458.451,VALID,21.9444,VALID,14,VALID,0,
2013-07-01, 08:46:04,VALID,917.909,VALID,0,VALID,88.607,VALID,522.916,VALID,22.0208,VALID,30,VALID,0,
2013-07-01, 08:47:04,VALID,917.718,VALID,0,VALID,86.0836,VALID,548.595,VALID,22.1591,VALID,34,VALID,0,
2013-07-01, 08:48:04,VALID,918.004,VALID,0,VALID,87.0289,VALID,522.164,VALID,22.2745,VALID,34,VALID,0,
2013-07-01, 08:49:04,VALID,917.907,VALID,0,VALID,85.2908,VALID,444.162,VALID,22.372,VALID,33,VALID,0,
2013-07-01, 08:50:04,VALID,917.938,VALID,0,VALID,84.8562,VALID,349.184,VALID,22.4111,VALID,51,VALID,0,
2013-07-01, 08:51:04,VALID,917.868,VALID,0,VALID,85.9159,VALID,305.348,VALID,22.4111,VALID,1,VALID,0,
2013-07-01, 08:52:04,VALID,917.842,VALID,0,VALID,85.0087,VALID,357.886,VALID,22.4128,VALID,8,VALID,0,
2013-07-01, 08:53:04,VALID,918.007,VALID,0,VALID,84.3455,VALID,582.438,VALID,22.4323,VALID,11,VALID,0,
2013-07-01, 08:54:04,VALID,917.877,VALID,0,VALID,85.0316,VALID,501.428,VALID,22.5103,VALID,11,VALID,0,
2013-07-01, 08:55:04,VALID,917.94,VALID,0,VALID,86.015,VALID,521.949,VALID,22.686,VALID,11,VALID,0,
2013-07-01, 08:56:04,VALID,917.907,VALID,0,VALID,85.3136,VALID,460.6,VALID,22.8616,INVALID,360,VALID,0,
2013-07-01, 08:57:04,VALID,917.809,VALID,0,VALID,83.3773,VALID,386.143,VALID,22.9007,VALID,341,VALID,0,
2013-07-01, 08:58:04,VALID,917.855,VALID,0,VALID,82.432,VALID,463.609,VALID,22.7623,VALID,341,VALID,0,
2013-07-01, 08:59:04,VALID,917.83,VALID,0,VALID,83.5374,VALID,413.326,VALID,22.7623,INVALID,360,VALID,0,
2013-07-01, 09:00:04,VALID,917.82,VALID,0,VALID,83.5908,VALID,346.39,VALID,22.8404,VALID,341,VALID,0,
2013-07-01, 09:01:04,VALID,917.883,VALID,0,VALID,82.0127,VALID,422.136,VALID,22.938,VALID,52,VALID,0,
2013-07-01, 09:02:04,VALID,917.927,VALID,0,VALID,79.9849,VALID,460.6,VALID,22.7818,VALID,46,VALID,0,
2013-07-01, 09:03:04,VALID,917.848,VALID,0,VALID,81.1284,VALID,446.096,VALID,22.6257,VALID,37,VALID,0,
2013-07-01, 09:04:04,VALID,917.925,VALID,0,VALID,81.2809,VALID,415.905,VALID,22.5689,VALID,35,VALID,0,
2013-07-01, 09:05:04,VALID,917.893,VALID,0,VALID,82.554,VALID,429.12,VALID,22.5477,VALID,20,VALID,0,
2013-07-01, 09:06:04,VALID,917.867,VALID,0,VALID,82.7522,VALID,464.576,VALID,22.5477,VALID,25,VALID,0,
2013-07-01, 09:07:04,VALID,917.742,VALID,0,VALID,83.4307,VALID,511.42,VALID,22.5477,VALID,18,VALID,0,
2013-07-01, 09:08:04,VALID,917.789,VALID,0,VALID,83.2096,VALID,516.47,VALID,22.5655,VALID,15,VALID,0,
2013-07-01, 09:09:04,VALID,918.385,VALID,0,VALID,82.836,VALID,663.234,VALID,22.6647,VALID,24,VALID,0,
2013-07-01, 09:10:04,VALID,917.807,VALID,0,VALID,83.3544,VALID,570.513,VALID,22.8599,VALID,15,VALID,0,
2013-07-01, 09:11:04,VALID,917.733,VALID,0,VALID,81.6849,VALID,558.157,VALID,23.0746,VALID,345,VALID,0,
2013-07-01, 09:12:04,VALID,917.869,VALID,0,VALID,80.671,VALID,518.189,VALID,23.2893,VALID,16,VALID,0,
2013-07-01, 09:13:04,VALID,917.781,VALID,0,VALID,79.0015,VALID,466.08,VALID,23.4064,VALID,19,VALID,0,
2013-07-01, 09:14:04,VALID,917.912,VALID,0,VALID,79.7104,VALID,629.498,VALID,23.4845,VALID,19,VALID,0,
2013-07-01, 09:15:04,VALID,917.802,VALID,0,VALID,79.1158,VALID,440.294,VALID,23.6211,VALID,19,VALID,0,
2013-07-01, 09:16:04,VALID,917.992,VALID,0,VALID,78.9024,VALID,577.281,VALID,23.6992,VALID,22,VALID,0,
2013-07-01, 09:17:04,VALID,917.89,VALID,0,VALID,78.5593,VALID,405.805,VALID,23.7169,VALID,24,VALID,0,
2013-07-01, 09:18:04,VALID,917.954,VALID,0,VALID,79.0396,VALID,332.101,VALID,23.8163,VALID,23,VALID,0,
2013-07-01, 09:19:04,VALID,917.859,VALID,0,VALID,80.2974,VALID,402.797,VALID,23.9121,VALID,23,VALID,0,
2013-07-01, 09:20:04,VALID,917.881,VALID,0,VALID,75.9063,VALID,515.288,VALID,23.9316,VALID,331,VALID,0,
2013-07-01, 09:21:04,VALID,917.895,VALID,0,VALID,77.2404,VALID,528.933,VALID,23.795,VALID,315,VALID,0,
2013-07-01, 09:22:04,VALID,917.811,VALID,0,VALID,75.2355,VALID,512.817,VALID,23.5235,VALID,265,VALID,0,
2013-07-01, 09:23:04,VALID,917.835,VALID,0,VALID,78.2162,VALID,434.492,VALID,23.4064,VALID,275,VALID,0,
2013-07-01, 09:24:04,VALID,917.907,VALID,0,VALID,77.7055,VALID,455.336,VALID,23.3283,VALID,289,VALID,0,
2013-07-01, 09:25:04,VALID,917.84,VALID,0,VALID,76.7221,VALID,549.239,VALID,23.268,VALID,288,VALID,0,
2013-07-01, 09:26:04,VALID,918.124,VALID,0,VALID,77.0117,VALID,650.664,VALID,23.2307,VALID,289,VALID,0,
2013-07-01, 09:27:04,VALID,917.829,VALID,0,VALID,79.3674,VALID,683.326,VALID,23.2485,VALID,289,VALID,0,
2013-07-01, 09:28:04,VALID,918.023,VALID,0,VALID,80.3737,VALID,700.731,VALID,23.5217,VALID,329,VALID,0,
2013-07-01, 09:29:04,VALID,917.92,VALID,0,VALID,77.2328,VALID,712.979,VALID,23.8127,VALID,345,VALID,0,
2013-07-01, 09:30:04,VALID,917.965,VALID,0,VALID,76.5238,VALID,691.169,VALID,24.1269,VALID,23,VALID,0,
2013-07-01, 09:31:04,VALID,917.97,VALID,0,VALID,72.3843,VALID,690.739,VALID,24.3026,VALID,40,VALID,0,
2013-07-01, 09:32:04,VALID,917.891,VALID,0,VALID,71.8354,VALID,698.367,VALID,24.2635,VALID,21,VALID,0,
2013-07-01, 09:33:04,VALID,917.885,VALID,0,VALID,73.8861,VALID,666.672,VALID,24.125,VALID,32,VALID,0,
2013-07-01, 09:34:04,VALID,918.022,VALID,0,VALID,73.3144,VALID,655.928,VALID,24.1055,VALID,28,VALID,0,
2013-07-01, 09:35:04,VALID,917.883,VALID,0,VALID,76.6992,VALID,678.813,VALID,24.1677,VALID,18,VALID,0,
2013-07-01, 09:36:04,VALID,917.963,VALID,0,VALID,71.3933,VALID,700.194,VALID,24.2635,VALID,342,VALID,0,
2013-07-01, 09:37:04,VALID,917.96,VALID,0,VALID,73.2915,VALID,410.962,VALID,24.3026,VALID,31,VALID,0,
2013-07-01, 09:38:04,VALID,917.954,VALID,0,VALID,74.2673,VALID,296.538,VALID,24.4411,VALID,65,VALID,0,
2013-07-01, 09:39:04,VALID,917.98,VALID,0,VALID,70.9283,VALID,232.395,VALID,24.5778,VALID,30,VALID,0,
2013-07-01, 09:40:04,VALID,917.946,VALID,0,VALID,70.1659,VALID,213.486,VALID,24.3026,VALID,263,VALID,0,
2013-07-01, 09:41:04,VALID,917.85,VALID,0,VALID,72.3157,VALID,213.593,VALID,24.0506,VALID,264,VALID,0,
2013-07-01, 09:42:04,VALID,917.821,VALID,0,VALID,72.9713,VALID,235.404,VALID,23.8554,VALID,264,VALID,0,
2013-07-01, 09:43:04,VALID,917.802,VALID,0,VALID,72.6359,VALID,248.834,VALID,23.6602,VALID,264,VALID,0,
2013-07-01, 09:44:04,VALID,917.888,VALID,0,VALID,74.74,VALID,258.396,VALID,23.5412,VALID,264,VALID,0,
2013-07-01, 09:45:04,VALID,917.881,VALID,0,VALID,75.7539,VALID,263.661,VALID,23.5626,VALID,310,VALID,0,
2013-07-01, 09:46:04,VALID,917.778,VALID,0,VALID,75.1669,VALID,265.38,VALID,23.4437,VALID,346,VALID,0,
2013-07-01, 09:47:04,VALID,917.792,VALID,0,VALID,76.0741,VALID,237.875,VALID,23.3869,VALID,347,VALID,0,
2013-07-01, 09:48:04,VALID,917.844,VALID,0,VALID,76.905,VALID,227.238,VALID,23.3265,VALID,360,VALID,0,
2013-07-01, 09:49:04,VALID,917.819,VALID,0,VALID,77.2252,VALID,223.478,VALID,23.3656,INVALID,360,VALID,0,
2013-07-01, 09:50:04,VALID,917.701,VALID,0,VALID,75.8987,VALID,219.932,VALID,23.4437,VALID,14,VALID,0,
2013-07-01, 09:51:04,VALID,917.763,VALID,0,VALID,77.1795,VALID,226.486,VALID,23.5608,VALID,11,VALID,0,
2013-07-01, 09:52:04,VALID,917.723,VALID,0,VALID,76.1274,VALID,231.213,VALID,23.543,VALID,10,VALID,0,
2013-07-01, 09:53:04,VALID,917.857,VALID,0,VALID,76.6763,VALID,233.899,VALID,23.3674,VALID,24,VALID,0,
2013-07-01, 09:54:04,VALID,917.809,VALID,0,VALID,77.7207,VALID,257.859,VALID,23.2094,VALID,17,VALID,0,
2013-07-01, 09:55:04,VALID,917.704,VALID,0,VALID,77.5073,VALID,433.632,VALID,23.1136,VALID,3,VALID,0,
2013-07-01, 09:56:04,VALID,917.771,VALID,0,VALID,79.4055,VALID,710.186,VALID,23.1314,VALID,30,VALID,0,
2013-07-01, 09:57:04,VALID,917.703,VALID,0,VALID,79.253,VALID,716.74,VALID,23.3461,VALID,350,VALID,0,
2013-07-01, 09:58:04,VALID,917.642,VALID,0,VALID,77.3853,VALID,725.12,VALID,23.6193,VALID,34,VALID,0,
2013-07-01, 09:59:04,VALID,917.641,VALID,0,VALID,73.1086,VALID,634.333,VALID,23.7364,VALID,15,VALID,0,
2013-07-01, 10:00:04,VALID,917.701,VALID,0,VALID,71.9041,VALID,481.766,VALID,23.8554,VALID,14,VALID,0,
2013-07-01, 10:01:04,VALID,917.6,VALID,0,VALID,73.1467,VALID,533.66,VALID,23.8554,VALID,360,VALID,0,
2013-07-01, 10:02:04,VALID,917.559,VALID,0,VALID,73.1009,VALID,686.979,VALID,23.953,VALID,27,VALID,0,
2013-07-01, 10:03:04,VALID,917.594,VALID,0,VALID,72.735,VALID,726.087,VALID,24.1092,VALID,16,VALID,0,
2013-07-01, 10:04:04,VALID,917.639,VALID,0,VALID,74.2902,VALID,725.55,VALID,24.3044,VALID,19,VALID,0,
2013-07-01, 10:05:04,VALID,917.541,VALID,0,VALID,70.9435,VALID,719.533,VALID,24.4216,VALID,7,VALID,0,
2013-07-01, 10:06:04,VALID,917.638,VALID,0,VALID,71.7745,VALID,713.732,VALID,24.4606,VALID,342,VALID,0,
2013-07-01, 10:07:04,VALID,917.583,VALID,0,VALID,71.4771,VALID,700.731,VALID,24.4606,VALID,9,VALID,0,
2013-07-01, 10:08:04,VALID,917.592,VALID,0,VALID,73.0399,VALID,695.359,VALID,24.5778,VALID,32,VALID,0,
2013-07-01, 10:09:04,VALID,917.549,VALID,0,VALID,72.9256,VALID,701.268,VALID,24.8297,VALID,37,VALID,0,
2013-07-01, 10:10:04,VALID,917.605,VALID,0,VALID,70.7682,VALID,692.673,VALID,25.1831,VALID,47,VALID,0,
2013-07-01, 10:11:04,VALID,917.541,VALID,0,VALID,67.8636,VALID,694.929,VALID,25.4565,VALID,315,VALID,0,
2013-07-01, 10:12:04,VALID,917.535,VALID,0,VALID,68.7708,VALID,710.401,VALID,25.5327,VALID,27,VALID,0,
2013-07-01, 10:13:04,VALID,917.521,VALID,0,VALID,68.9233,VALID,716.418,VALID,25.5523,VALID,27,VALID,0,
2013-07-01, 10:14:04,VALID,917.498,VALID,0,VALID,70.0363,VALID,722.219,VALID,25.5894,VALID,338,VALID,0,
2013-07-01, 10:15:04,VALID,917.482,VALID,0,VALID,68.6717,VALID,720.608,VALID,25.7866,VALID,25,VALID,0,
2013-07-01, 10:16:04,VALID,917.478,VALID,0,VALID,71.9422,VALID,626.274,VALID,25.9234,VALID,46,VALID,0,
2013-07-01, 10:17:04,VALID,917.487,VALID,0,VALID,71.1875,VALID,692.673,VALID,26.0776,VALID,38,VALID,0,
2013-07-01, 10:18:04,VALID,917.46,VALID,0,VALID,69.1596,VALID,735.972,VALID,26.275,VALID,27,VALID,0,
2013-07-01, 10:19:04,VALID,917.449,VALID,0,VALID,64.6008,VALID,742.096,VALID,26.2945,VALID,32,VALID,0,
2013-07-01, 10:20:04,VALID,917.467,VALID,0,VALID,62.1613,VALID,758.105,VALID,26.1382,VALID,299,VALID,0,
2013-07-01, 10:21:04,VALID,917.441,VALID,0,VALID,64.9972,VALID,520.23,VALID,25.8843,VALID,356,VALID,0,
2013-07-01, 10:22:04,VALID,917.475,VALID,0,VALID,67.6578,VALID,805.486,VALID,25.7495,VALID,323,VALID,0,
2013-07-01, 10:23:04,VALID,917.473,VALID,0,VALID,65.9121,VALID,764.014,VALID,25.4175,VALID,281,VALID,0,
2013-07-01, 10:24:04,VALID,917.49,VALID,0,VALID,65.508,VALID,756.601,VALID,25.2222,INVALID,360,VALID,0,
2013-07-01, 10:25:04,VALID,917.484,VALID,0,VALID,66.3771,VALID,405.698,VALID,25.1831,VALID,44,VALID,0,
2013-07-01, 10:26:04,VALID,917.468,VALID,0,VALID,66.6287,VALID,731.674,VALID,25.2007,VALID,31,VALID,0,
2013-07-01, 10:27:04,VALID,917.47,VALID,0,VALID,67.2995,VALID,722.757,VALID,25.2808,VALID,20,VALID,0,
2013-07-01, 10:28:04,VALID,917.476,VALID,0,VALID,69.5179,VALID,724.691,VALID,25.437,VALID,16,VALID,0,
2013-07-01, 10:29:04,VALID,917.444,VALID,0,VALID,67.4062,VALID,721.682,VALID,25.5933,VALID,28,VALID,0,
2013-07-01, 10:30:04,VALID,917.457,VALID,0,VALID,68.0009,VALID,726.839,VALID,25.73,VALID,348,VALID,0,
2013-07-01, 10:31:04,VALID,917.426,VALID,0,VALID,65.1802,VALID,654.209,VALID,25.7085,VALID,268,VALID,0,
2013-07-01, 10:32:04,VALID,917.446,VALID,0,VALID,65.0811,VALID,712.227,VALID,25.6714,VALID,46,VALID,0,
2013-07-01, 10:33:04,VALID,917.45,VALID,0,VALID,64.8448,VALID,720.071,VALID,25.6519,VALID,292,VALID,0,
2013-07-01, 10:34:04,VALID,917.499,VALID,0,VALID,67.4062,VALID,721.252,VALID,25.73,VALID,345,VALID,0,
2013-07-01, 10:35:04,VALID,917.486,VALID,0,VALID,66.0112,VALID,723.186,VALID,25.73,VALID,11,VALID,0,
2013-07-01, 10:36:04,VALID,917.487,VALID,0,VALID,67.0479,VALID,725.55,VALID,25.5933,VALID,287,VALID,0,
2013-07-01, 10:37:04,VALID,917.498,VALID,0,VALID,66.9565,VALID,728.344,VALID,25.5933,VALID,325,VALID,0,
2013-07-01, 10:38:04,VALID,917.5,VALID,0,VALID,64.9439,VALID,732.749,VALID,25.5542,VALID,338,VALID,0,
2013-07-01, 10:39:04,VALID,917.491,VALID,0,VALID,64.8067,VALID,748.328,VALID,25.3784,VALID,308,VALID,0,
2013-07-01, 10:40:04,VALID,917.432,VALID,0,VALID,67.6273,VALID,761.543,VALID,25.2808,VALID,20,VALID,0,
2013-07-01, 10:41:04,VALID,917.437,VALID,0,VALID,69.0072,VALID,747.576,VALID,25.064,VALID,6,VALID,0,
2013-07-01, 10:42:04,VALID,917.411,VALID,0,VALID,69.678,VALID,750.906,VALID,25.025,VALID,24,VALID,0,
2013-07-01, 10:43:04,VALID,917.423,VALID,0,VALID,68.2448,VALID,746.716,VALID,25.0036,VALID,6,VALID,0,
2013-07-01, 10:44:04,VALID,917.424,VALID,0,VALID,66.2932,VALID,744.89,VALID,24.9664,VALID,56,VALID,0,
2013-07-01, 10:45:04,VALID,917.383,VALID,0,VALID,66.6668,VALID,746.179,VALID,24.9859,VALID,12,VALID,0,
2013-07-01, 10:46:04,VALID,917.384,VALID,0,VALID,68.0085,VALID,745.104,VALID,24.8864,VALID,342,VALID,0,
2013-07-01, 10:47:04,VALID,917.387,VALID,0,VALID,68.0237,VALID,745.427,VALID,24.9469,VALID,17,VALID,0,
2013-07-01, 10:48:04,VALID,917.387,VALID,0,VALID,68.6565,VALID,749.832,VALID,24.8669,VALID,338,VALID,0,
2013-07-01, 10:49:04,VALID,917.417,VALID,0,VALID,68.2448,VALID,753.485,VALID,24.9469,VALID,163,VALID,0,
2013-07-01, 10:50:04,VALID,917.386,VALID,0,VALID,66.9793,VALID,749.08,VALID,25.1812,VALID,114,VALID,0,
2013-07-01, 10:51:04,VALID,917.412,VALID,0,VALID,70.8749,VALID,828.479,VALID,25.3374,VALID,45,VALID,0,
2013-07-01, 10:52:04,VALID,917.403,VALID,0,VALID,67.6349,VALID,775.833,VALID,25.5327,VALID,312,VALID,0,
2013-07-01, 10:53:04,VALID,917.401,VALID,0,VALID,65.9349,VALID,678.276,VALID,25.6909,VALID,27,VALID,0,
2013-07-01, 10:54:04,VALID,917.371,VALID,0,VALID,68.4049,VALID,498.957,VALID,25.8863,VALID,11,VALID,0,
2013-07-01, 10:55:04,VALID,917.435,VALID,0,VALID,67.2233,VALID,469.84,VALID,25.982,VALID,21,VALID,0,
2013-07-01, 10:56:04,VALID,917.385,VALID,0,VALID,66.1179,VALID,439.972,VALID,25.9449,VALID,30,VALID,0,
2013-07-01, 10:57:04,VALID,917.38,VALID,0,VALID,66.8421,VALID,480.262,VALID,25.6909,VALID,37,VALID,0,
2013-07-01, 10:58:04,VALID,917.326,VALID,0,VALID,65.7977,VALID,821.173,VALID,25.5913,VALID,30,VALID,0,
2013-07-01, 10:59:04,VALID,917.33,VALID,0,VALID,67.2614,VALID,893.158,VALID,25.398,VALID,21,VALID,0,
2013-07-01, 11:00:04,VALID,917.321,VALID,0,VALID,70.1354,VALID,725.228,VALID,25.2612,VALID,8,VALID,0,
2013-07-01, 11:01:04,VALID,917.353,VALID,0,VALID,70.5242,VALID,404.623,VALID,25.2808,VALID,5,VALID,0,
2013-07-01, 11:02:04,VALID,917.343,VALID,0,VALID,71.9574,VALID,373.036,VALID,25.2417,VALID,23,VALID,0,
2013-07-01, 11:03:04,VALID,917.309,VALID,0,VALID,69.8076,VALID,421.277,VALID,25.105,VALID,327,VALID,0,
2013-07-01, 11:04:04,VALID,917.307,VALID,0,VALID,72.7579,VALID,470.485,VALID,24.9274,VALID,9,VALID,0,
2013-07-01, 11:05:04,VALID,917.3,VALID,0,VALID,72.7045,VALID,411.285,VALID,24.9488,VALID,343,VALID,0,
2013-07-01, 11:06:04,VALID,917.294,VALID,0,VALID,71.0502,VALID,366.804,VALID,24.9859,VALID,2,VALID,0,
2013-07-01, 11:07:04,VALID,917.286,VALID,0,VALID,70.0058,VALID,371.531,VALID,25.0445,VALID,300,VALID,0,
2013-07-01, 11:08:04,VALID,917.294,VALID,0,VALID,71.2942,VALID,508.734,VALID,25.064,VALID,48,VALID,0,
2013-07-01, 11:09:04,VALID,917.269,VALID,0,VALID,71.6372,VALID,659.796,VALID,25.2612,VALID,23,VALID,0,
2013-07-01, 11:10:04,VALID,917.262,VALID,0,VALID,72.5139,VALID,486.601,VALID,25.4937,VALID,14,VALID,0,
2013-07-01, 11:11:04,VALID,917.265,VALID,0,VALID,70.1126,VALID,1037.34,VALID,25.6109,VALID,348,VALID,0,
2013-07-01, 11:12:04,VALID,917.238,VALID,0,VALID,68.4507,VALID,1046.91,VALID,25.7476,VALID,323,VALID,0,
2013-07-01, 11:13:04,VALID,917.205,VALID,0,VALID,68.3744,VALID,1086.77,VALID,25.8257,VALID,352,VALID,0,
2013-07-01, 11:14:04,VALID,917.152,VALID,0,VALID,68.1838,VALID,425.574,VALID,25.7671,VALID,17,VALID,0,
2013-07-01, 11:15:04,VALID,917.156,VALID,0,VALID,69.2206,VALID,352.837,VALID,25.5327,VALID,245,VALID,0,
2013-07-01, 11:16:04,VALID,917.092,VALID,0,VALID,69.8686,VALID,713.946,VALID,25.4136,VALID,226,VALID,0,
2013-07-01, 11:17:04,VALID,917.084,VALID,0,VALID,70.1126,VALID,618.754,VALID,25.316,VALID,317,VALID,0,
2013-07-01, 11:18:04,VALID,917.096,VALID,0,VALID,71.9422,VALID,605.538,VALID,25.3374,VALID,271,VALID,0,
2013-07-01, 11:19:04,VALID,917.028,VALID,0,VALID,69.7619,VALID,1031.97,VALID,25.3355,VALID,252,VALID,0,
2013-07-01, 11:20:04,VALID,917.015,VALID,0,VALID,70.8368,VALID,373.788,VALID,25.5327,VALID,185,VALID,0,
2013-07-01, 11:21:04,VALID,916.986,VALID,0,VALID,69.8762,VALID,292.992,VALID,25.5913,VALID,223,VALID,0,
2013-07-01, 11:22:04,VALID,917.008,VALID,0,VALID,70.1049,VALID,272.686,VALID,25.6304,VALID,246,VALID,0,
2013-07-01, 11:23:04,VALID,917.006,VALID,0,VALID,70.0135,VALID,276.124,VALID,25.437,VALID,249,VALID,0,
2013-07-01, 11:24:04,VALID,916.979,VALID,0,VALID,70.0973,VALID,349.291,VALID,25.2007,VALID,246,VALID,0,
2013-07-01, 11:25:04,VALID,917.021,VALID,0,VALID,73.0552,VALID,302.662,VALID,25.064,VALID,296,VALID,0,